owner,sensor,date,latitude,longitude,air_pressure(mBar),qcFlag 
COMPS,ioos:station:USF.COMPS:CAM:1,2008-11-01T00:00:00Z,27.7650,-82.6490,1025.61,1111122 
COMPS,ioos:station:USF.COMPS:CAM:1,2008-11-01T01:00:00Z,27.7650,-82.6490,1025.94,1111122 
COMPS,ioos:station:USF.COMPS:CAM:1,2008-11-01T02:00:00Z,27.7650,-82.6490,1026.17,1111122 
COMPS,ioos:station:USF.COMPS:CAM:1,2008-11-01T03:00:00Z,27.7650,-82.6490,1026.12,1111122 
COMPS,ioos:station:USF.COMPS:CAM:1,2008-11-01T04:00:00Z,27.7650,-82.6490,1025.77,1111122 
COMPS,ioos:station:USF.COMPS:CAM:1,2008-11-01T05:00:00Z,27.7650,-82.6490,1025.46,1111122 
COMPS,ioos:station:USF.COMPS:CAM:1,2008-11-01T06:00:00Z,27.7650,-82.6490,1024.72,1111122 
COMPS,ioos:station:USF.COMPS:CAM:1,2008-11-01T07:00:00Z,27.7650,-82.6490,1024.34,1111122 
COMPS,ioos:station:USF.COMPS:CAM:1,2008-11-01T08:00:00Z,27.7650,-82.6490,1024.09,1111122 
COMPS,ioos:station:USF.COMPS:CAM:1,2008-11-01T09:00:00Z,27.7650,-82.6490,1023.85,1111122 
COMPS,ioos:station:USF.COMPS:CAM:1,2008-11-01T10:00:00Z,27.7650,-82.6490,1023.92,1111122 
COMPS,ioos:station:USF.COMPS:CAM:1,2008-11-01T11:00:00Z,27.7650,-82.6490,1023.92,1111122 
COMPS,ioos:station:USF.COMPS:CAM:1,2008-11-01T12:00:00Z,27.7650,-82.6490,1024.04,1111122 
COMPS,ioos:station:USF.COMPS:CAM:1,2008-11-01T13:00:00Z,27.7650,-82.6490,1024.25,1111122 
COMPS,ioos:station:USF.COMPS:CAM:1,2008-11-01T14:00:00Z,27.7650,-82.6490,1024.42,1111122 
COMPS,ioos:station:USF.COMPS:CAM:1,2008-11-01T15:00:00Z,27.7650,-82.6490,1024.44,1111122 
COMPS,ioos:station:USF.COMPS:CAM:1,2008-11-01T16:00:00Z,27.7650,-82.6490,1024.02,1111122 
COMPS,ioos:station:USF.COMPS:CAM:1,2008-11-01T17:00:00Z,27.7650,-82.6490,1023.16,1111122 
COMPS,ioos:station:USF.COMPS:CAM:1,2008-11-01T18:00:00Z,27.7650,-82.6490,1021.98,1111122 
COMPS,ioos:station:USF.COMPS:CAM:1,2008-11-01T19:00:00Z,27.7650,-82.6490,1021.12,1111122 
COMPS,ioos:station:USF.COMPS:CAM:1,2008-11-01T20:00:00Z,27.7650,-82.6490,1020.64,1111122 
COMPS,ioos:station:USF.COMPS:CAM:1,2008-11-01T21:00:00Z,27.7650,-82.6490,1020.4,1111122 
COMPS,ioos:station:USF.COMPS:CAM:1,2008-11-01T22:00:00Z,27.7650,-82.6490,1020.53,1111122 
COMPS,ioos:station:USF.COMPS:CAM:1,2008-11-02T00:00:00Z,27.7650,-82.6490,1021.24,1111122 
COMPS,ioos:station:USF.COMPS:CAM:1,2008-11-02T01:00:00Z,27.7650,-82.6490,1021.16,1111122 
COMPS,ioos:station:USF.COMPS:CAM:1,2008-11-02T02:00:00Z,27.7650,-82.6490,1021.37,1111122 
COMPS,ioos:station:USF.COMPS:CAM:1,2008-11-02T03:00:00Z,27.7650,-82.6490,1021.77,1111122 
COMPS,ioos:station:USF.COMPS:CAM:1,2008-11-02T04:00:00Z,27.7650,-82.6490,1021.41,1111122 
COMPS,ioos:station:USF.COMPS:CAM:1,2008-11-02T05:00:00Z,27.7650,-82.6490,1020.84,1111122 
COMPS,ioos:station:USF.COMPS:CAM:1,2008-11-02T06:00:00Z,27.7650,-82.6490,1020.45,1111122 
COMPS,ioos:station:USF.COMPS:CAM:1,2008-11-02T07:00:00Z,27.7650,-82.6490,1020.06,1111122 
COMPS,ioos:station:USF.COMPS:CAM:1,2008-11-02T08:00:00Z,27.7650,-82.6490,1019.68,1111122 
COMPS,ioos:station:USF.COMPS:CAM:1,2008-11-02T09:00:00Z,27.7650,-82.6490,1019.6,1111122 
COMPS,ioos:station:USF.COMPS:CAM:1,2008-11-02T10:00:00Z,27.7650,-82.6490,1019.41,1111122 
COMPS,ioos:station:USF.COMPS:CAM:1,2008-11-02T11:00:00Z,27.7650,-82.6490,1019.88,1111122 
COMPS,ioos:station:USF.COMPS:CAM:1,2008-11-02T12:00:00Z,27.7650,-82.6490,1019.89,1111122 
COMPS,ioos:station:USF.COMPS:CAM:1,2008-11-02T13:00:00Z,27.7650,-82.6490,1020.41,1111122 
COMPS,ioos:station:USF.COMPS:CAM:1,2008-11-02T14:00:00Z,27.7650,-82.6490,1020.72,1111122 
COMPS,ioos:station:USF.COMPS:CAM:1,2008-11-02T15:00:00Z,27.7650,-82.6490,1020.82,1111122 
COMPS,ioos:station:USF.COMPS:CAM:1,2008-11-02T16:00:00Z,27.7650,-82.6490,1020.65,1111122 
COMPS,ioos:station:USF.COMPS:CAM:1,2008-11-02T17:00:00Z,27.7650,-82.6490,1019.98,1111122 
COMPS,ioos:station:USF.COMPS:CAM:1,2008-11-02T18:00:00Z,27.7650,-82.6490,1019.1,1111122 
COMPS,ioos:station:USF.COMPS:CAM:1,2008-11-02T19:00:00Z,27.7650,-82.6490,1018.57,1111122 
COMPS,ioos:station:USF.COMPS:CAM:1,2008-11-02T20:00:00Z,27.7650,-82.6490,1018.24,1111122 
COMPS,ioos:station:USF.COMPS:CAM:1,2008-11-02T21:00:00Z,27.7650,-82.6490,1018.0,1111122 
COMPS,ioos:station:USF.COMPS:CAM:1,2008-11-02T22:00:00Z,27.7650,-82.6490,1018.36,1111122 
COMPS,ioos:station:USF.COMPS:CAM:1,2008-11-02T23:00:00Z,27.7650,-82.6490,1018.24,1111122 
COMPS,ioos:station:USF.COMPS:CAM:1,2008-11-03T00:00:00Z,27.7650,-82.6490,1018.52,1111122 
COMPS,ioos:station:USF.COMPS:CAM:1,2008-11-03T01:00:00Z,27.7650,-82.6490,1018.9,1111122 
COMPS,ioos:station:USF.COMPS:CAM:1,2008-11-03T02:00:00Z,27.7650,-82.6490,1019.12,1111122 
COMPS,ioos:station:USF.COMPS:CAM:1,2008-11-03T03:00:00Z,27.7650,-82.6490,1019.52,1111122 
COMPS,ioos:station:USF.COMPS:CAM:1,2008-11-03T04:00:00Z,27.7650,-82.6490,1019.2,1111122 
COMPS,ioos:station:USF.COMPS:CAM:1,2008-11-03T05:00:00Z,27.7650,-82.6490,1018.57,1111122 
COMPS,ioos:station:USF.COMPS:CAM:1,2008-11-03T06:00:00Z,27.7650,-82.6490,1018.44,1111122 
COMPS,ioos:station:USF.COMPS:CAM:1,2008-11-03T07:00:00Z,27.7650,-82.6490,1017.98,1111122 
COMPS,ioos:station:USF.COMPS:CAM:1,2008-11-03T08:00:00Z,27.7650,-82.6490,1017.66,1111122 
COMPS,ioos:station:USF.COMPS:CAM:1,2008-11-03T09:00:00Z,27.7650,-82.6490,1017.45,1111122 
COMPS,ioos:station:USF.COMPS:CAM:1,2008-11-03T10:00:00Z,27.7650,-82.6490,1017.64,1111122 
COMPS,ioos:station:USF.COMPS:CAM:1,2008-11-03T11:00:00Z,27.7650,-82.6490,1017.69,1111122 
COMPS,ioos:station:USF.COMPS:CAM:1,2008-11-03T12:00:00Z,27.7650,-82.6490,1018.1,1111122 
COMPS,ioos:station:USF.COMPS:CAM:1,2008-11-03T13:00:00Z,27.7650,-82.6490,1018.61,1111122 
COMPS,ioos:station:USF.COMPS:CAM:1,2008-11-03T14:00:00Z,27.7650,-82.6490,1018.97,1111122 
COMPS,ioos:station:USF.COMPS:CAM:1,2008-11-03T15:00:00Z,27.7650,-82.6490,1018.97,1111122 
COMPS,ioos:station:USF.COMPS:CAM:1,2008-11-03T16:00:00Z,27.7650,-82.6490,1018.58,1111122 
COMPS,ioos:station:USF.COMPS:CAM:1,2008-11-03T17:00:00Z,27.7650,-82.6490,1017.86,1111122 
COMPS,ioos:station:USF.COMPS:CAM:1,2008-11-03T18:00:00Z,27.7650,-82.6490,1016.8,1111122 
COMPS,ioos:station:USF.COMPS:CAM:1,2008-11-03T19:00:00Z,27.7650,-82.6490,1016.05,1111122 
COMPS,ioos:station:USF.COMPS:CAM:1,2008-11-03T20:00:00Z,27.7650,-82.6490,1015.62,1111122 
COMPS,ioos:station:USF.COMPS:CAM:1,2008-11-03T21:00:00Z,27.7650,-82.6490,1015.34,1111122 
COMPS,ioos:station:USF.COMPS:CAM:1,2008-11-03T22:00:00Z,27.7650,-82.6490,1015.22,1111122 
COMPS,ioos:station:USF.COMPS:CAM:1,2008-11-03T23:00:00Z,27.7650,-82.6490,1015.4,1111122 
COMPS,ioos:station:USF.COMPS:CAM:1,2008-11-04T00:00:00Z,27.7650,-82.6490,1016.02,1111122 
COMPS,ioos:station:USF.COMPS:CAM:1,2008-11-04T01:00:00Z,27.7650,-82.6490,1016.42,1111122 
COMPS,ioos:station:USF.COMPS:CAM:1,2008-11-04T02:00:00Z,27.7650,-82.6490,1016.96,1111122 
COMPS,ioos:station:USF.COMPS:CAM:1,2008-11-04T03:00:00Z,27.7650,-82.6490,1017.38,1111122 
COMPS,ioos:station:USF.COMPS:CAM:1,2008-11-04T04:00:00Z,27.7650,-82.6490,1017.22,1111122 
COMPS,ioos:station:USF.COMPS:CAM:1,2008-11-04T05:00:00Z,27.7650,-82.6490,1017.26,1111122 
COMPS,ioos:station:USF.COMPS:CAM:1,2008-11-04T06:00:00Z,27.7650,-82.6490,1016.93,1111122 
COMPS,ioos:station:USF.COMPS:CAM:1,2008-11-04T07:00:00Z,27.7650,-82.6490,1016.54,1111122 
COMPS,ioos:station:USF.COMPS:CAM:1,2008-11-04T08:00:00Z,27.7650,-82.6490,1016.13,1111122 
COMPS,ioos:station:USF.COMPS:CAM:1,2008-11-04T09:00:00Z,27.7650,-82.6490,1016.05,1111122 
COMPS,ioos:station:USF.COMPS:CAM:1,2008-11-04T10:00:00Z,27.7650,-82.6490,1016.06,1111122 
COMPS,ioos:station:USF.COMPS:CAM:1,2008-11-04T11:00:00Z,27.7650,-82.6490,1016.22,1111122 
COMPS,ioos:station:USF.COMPS:CAM:1,2008-11-04T12:00:00Z,27.7650,-82.6490,1016.7,1111122 
COMPS,ioos:station:USF.COMPS:CAM:1,2008-11-04T13:00:00Z,27.7650,-82.6490,1017.25,1111122 
COMPS,ioos:station:USF.COMPS:CAM:1,2008-11-04T14:00:00Z,27.7650,-82.6490,1017.62,1111122 
COMPS,ioos:station:USF.COMPS:CAM:1,2008-11-04T15:00:00Z,27.7650,-82.6490,1017.88,1111122 
COMPS,ioos:station:USF.COMPS:CAM:1,2008-11-04T16:00:00Z,27.7650,-82.6490,1017.92,1111122 
COMPS,ioos:station:USF.COMPS:CAM:1,2008-11-04T17:00:00Z,27.7650,-82.6490,1017.12,1111122 
COMPS,ioos:station:USF.COMPS:CAM:1,2008-11-04T18:00:00Z,27.7650,-82.6490,1016.2,1111122 
COMPS,ioos:station:USF.COMPS:CAM:1,2008-11-04T19:00:00Z,27.7650,-82.6490,1015.38,1111122 
COMPS,ioos:station:USF.COMPS:CAM:1,2008-11-04T20:00:00Z,27.7650,-82.6490,1015.13,1111122 
COMPS,ioos:station:USF.COMPS:CAM:1,2008-11-04T21:00:00Z,27.7650,-82.6490,1015.24,1111122 
COMPS,ioos:station:USF.COMPS:CAM:1,2008-11-04T22:00:00Z,27.7650,-82.6490,1015.53,1111122 
COMPS,ioos:station:USF.COMPS:CAM:1,2008-11-04T23:00:00Z,27.7650,-82.6490,1015.78,1111122 
COMPS,ioos:station:USF.COMPS:CAM:1,2008-11-05T00:00:00Z,27.7650,-82.6490,1015.98,1111122 
COMPS,ioos:station:USF.COMPS:CAM:1,2008-11-05T01:00:00Z,27.7650,-82.6490,1016.46,1111122 
COMPS,ioos:station:USF.COMPS:CAM:1,2008-11-05T02:00:00Z,27.7650,-82.6490,1016.76,1111122 
COMPS,ioos:station:USF.COMPS:CAM:1,2008-11-05T03:00:00Z,27.7650,-82.6490,1016.82,1111122 
COMPS,ioos:station:USF.COMPS:CAM:1,2008-11-05T04:00:00Z,27.7650,-82.6490,1016.54,1111122 
COMPS,ioos:station:USF.COMPS:CAM:1,2008-11-05T05:00:00Z,27.7650,-82.6490,1016.32,1111122 
COMPS,ioos:station:USF.COMPS:CAM:1,2008-11-05T06:00:00Z,27.7650,-82.6490,1016.12,1111122 
COMPS,ioos:station:USF.COMPS:CAM:1,2008-11-05T07:00:00Z,27.7650,-82.6490,1016.01,1111122 
COMPS,ioos:station:USF.COMPS:CAM:1,2008-11-05T08:00:00Z,27.7650,-82.6490,1015.66,1111122 
COMPS,ioos:station:USF.COMPS:CAM:1,2008-11-05T09:00:00Z,27.7650,-82.6490,1015.53,1111122 
COMPS,ioos:station:USF.COMPS:CAM:1,2008-11-05T10:00:00Z,27.7650,-82.6490,1015.65,1111122 
COMPS,ioos:station:USF.COMPS:CAM:1,2008-11-05T11:00:00Z,27.7650,-82.6490,1015.86,1111122 
COMPS,ioos:station:USF.COMPS:CAM:1,2008-11-05T12:00:00Z,27.7650,-82.6490,1016.36,1111122 
COMPS,ioos:station:USF.COMPS:CAM:1,2008-11-05T13:00:00Z,27.7650,-82.6490,1017.01,1111122 
COMPS,ioos:station:USF.COMPS:CAM:1,2008-11-05T14:00:00Z,27.7650,-82.6490,1017.46,1111122 
COMPS,ioos:station:USF.COMPS:CAM:1,2008-11-05T15:00:00Z,27.7650,-82.6490,1017.84,1111122 
COMPS,ioos:station:USF.COMPS:CAM:1,2008-11-05T16:00:00Z,27.7650,-82.6490,1017.62,1111122 
COMPS,ioos:station:USF.COMPS:CAM:1,2008-11-05T17:00:00Z,27.7650,-82.6490,1017.08,1111122 
COMPS,ioos:station:USF.COMPS:CAM:1,2008-11-05T18:00:00Z,27.7650,-82.6490,1016.06,1111122 
COMPS,ioos:station:USF.COMPS:CAM:1,2008-11-05T19:00:00Z,27.7650,-82.6490,1015.37,1111122 
COMPS,ioos:station:USF.COMPS:CAM:1,2008-11-05T21:00:00Z,27.7650,-82.6490,1014.9,1111122 
COMPS,ioos:station:USF.COMPS:CAM:1,2008-11-05T22:00:00Z,27.7650,-82.6490,1015.02,1111122 
COMPS,ioos:station:USF.COMPS:CAM:1,2008-11-05T23:00:00Z,27.7650,-82.6490,1015.34,1111122 
COMPS,ioos:station:USF.COMPS:CAM:1,2008-11-06T00:00:00Z,27.7650,-82.6490,1015.93,1111122 
COMPS,ioos:station:USF.COMPS:CAM:1,2008-11-06T01:00:00Z,27.7650,-82.6490,1016.45,1111122 
COMPS,ioos:station:USF.COMPS:CAM:1,2008-11-06T02:00:00Z,27.7650,-82.6490,1016.86,1111122 
COMPS,ioos:station:USF.COMPS:CAM:1,2008-11-06T03:00:00Z,27.7650,-82.6490,1017.16,1111122 
COMPS,ioos:station:USF.COMPS:CAM:1,2008-11-06T04:00:00Z,27.7650,-82.6490,1017.05,1111122 
COMPS,ioos:station:USF.COMPS:CAM:1,2008-11-06T05:00:00Z,27.7650,-82.6490,1016.85,1111122 
COMPS,ioos:station:USF.COMPS:CAM:1,2008-11-06T06:00:00Z,27.7650,-82.6490,1016.32,1111122 
COMPS,ioos:station:USF.COMPS:CAM:1,2008-11-06T07:00:00Z,27.7650,-82.6490,1016.1,1111122 
COMPS,ioos:station:USF.COMPS:CAM:1,2008-11-06T08:00:00Z,27.7650,-82.6490,1015.66,1111122 
COMPS,ioos:station:USF.COMPS:CAM:1,2008-11-06T09:00:00Z,27.7650,-82.6490,1015.52,1111122 
COMPS,ioos:station:USF.COMPS:CAM:1,2008-11-06T10:00:00Z,27.7650,-82.6490,1016.06,1111122 
COMPS,ioos:station:USF.COMPS:CAM:1,2008-11-06T11:00:00Z,27.7650,-82.6490,1016.34,1111122 
COMPS,ioos:station:USF.COMPS:CAM:1,2008-11-06T12:00:00Z,27.7650,-82.6490,1017.13,1111122 
COMPS,ioos:station:USF.COMPS:CAM:1,2008-11-06T13:00:00Z,27.7650,-82.6490,1017.52,1111122 
COMPS,ioos:station:USF.COMPS:CAM:1,2008-11-06T14:00:00Z,27.7650,-82.6490,1017.88,1111122 
COMPS,ioos:station:USF.COMPS:CAM:1,2008-11-06T15:00:00Z,27.7650,-82.6490,1018.09,1111122 
COMPS,ioos:station:USF.COMPS:CAM:1,2008-11-06T16:00:00Z,27.7650,-82.6490,1017.8,1111122 
COMPS,ioos:station:USF.COMPS:CAM:1,2008-11-06T17:00:00Z,27.7650,-82.6490,1016.81,1111122 
COMPS,ioos:station:USF.COMPS:CAM:1,2008-11-06T18:00:00Z,27.7650,-82.6490,1015.92,1111122 
COMPS,ioos:station:USF.COMPS:CAM:1,2008-11-06T19:00:00Z,27.7650,-82.6490,1015.68,1111122 
COMPS,ioos:station:USF.COMPS:CAM:1,2008-11-06T20:00:00Z,27.7650,-82.6490,1015.49,1111122 
COMPS,ioos:station:USF.COMPS:CAM:1,2008-11-06T21:00:00Z,27.7650,-82.6490,1015.18,1111122 
COMPS,ioos:station:USF.COMPS:CAM:1,2008-11-06T22:00:00Z,27.7650,-82.6490,1015.49,1111122 
COMPS,ioos:station:USF.COMPS:CAM:1,2008-11-06T23:00:00Z,27.7650,-82.6490,1015.5,1111122 
COMPS,ioos:station:USF.COMPS:CAM:1,2008-11-07T00:00:00Z,27.7650,-82.6490,1016.04,1111122 
COMPS,ioos:station:USF.COMPS:CAM:1,2008-11-07T01:00:00Z,27.7650,-82.6490,1016.33,1111122 
COMPS,ioos:station:USF.COMPS:CAM:1,2008-11-07T02:00:00Z,27.7650,-82.6490,1016.4,1111122 
COMPS,ioos:station:USF.COMPS:CAM:1,2008-11-07T03:00:00Z,27.7650,-82.6490,1016.45,1111122 
COMPS,ioos:station:USF.COMPS:CAM:1,2008-11-07T04:00:00Z,27.7650,-82.6490,1016.46,1111122 
COMPS,ioos:station:USF.COMPS:CAM:1,2008-11-07T05:00:00Z,27.7650,-82.6490,1016.14,1111122 
COMPS,ioos:station:USF.COMPS:CAM:1,2008-11-07T06:00:00Z,27.7650,-82.6490,1015.82,1111122 
COMPS,ioos:station:USF.COMPS:CAM:1,2008-11-07T07:00:00Z,27.7650,-82.6490,1015.3,1111122 
COMPS,ioos:station:USF.COMPS:CAM:1,2008-11-07T08:00:00Z,27.7650,-82.6490,1015.06,1111122 
COMPS,ioos:station:USF.COMPS:CAM:1,2008-11-07T09:00:00Z,27.7650,-82.6490,1015.06,1111122 
COMPS,ioos:station:USF.COMPS:CAM:1,2008-11-07T10:00:00Z,27.7650,-82.6490,1015.53,1111122 
COMPS,ioos:station:USF.COMPS:CAM:1,2008-11-07T11:00:00Z,27.7650,-82.6490,1015.62,1111122 
COMPS,ioos:station:USF.COMPS:CAM:1,2008-11-07T12:00:00Z,27.7650,-82.6490,1015.94,1111122 
COMPS,ioos:station:USF.COMPS:CAM:1,2008-11-07T13:00:00Z,27.7650,-82.6490,1016.34,1111122 
COMPS,ioos:station:USF.COMPS:CAM:1,2008-11-07T14:00:00Z,27.7650,-82.6490,1016.6,1111122 
COMPS,ioos:station:USF.COMPS:CAM:1,2008-11-07T15:00:00Z,27.7650,-82.6490,1016.48,1111122 
COMPS,ioos:station:USF.COMPS:CAM:1,2008-11-07T16:00:00Z,27.7650,-82.6490,1016.13,1111122 
COMPS,ioos:station:USF.COMPS:CAM:1,2008-11-07T17:00:00Z,27.7650,-82.6490,1015.32,1111122 
COMPS,ioos:station:USF.COMPS:CAM:1,2008-11-07T18:00:00Z,27.7650,-82.6490,1014.04,1111122 
COMPS,ioos:station:USF.COMPS:CAM:1,2008-11-07T19:00:00Z,27.7650,-82.6490,1013.2,1111122 
COMPS,ioos:station:USF.COMPS:CAM:1,2008-11-07T20:00:00Z,27.7650,-82.6490,1012.9,1111122 
COMPS,ioos:station:USF.COMPS:CAM:1,2008-11-07T21:00:00Z,27.7650,-82.6490,1012.77,1111122 
COMPS,ioos:station:USF.COMPS:CAM:1,2008-11-07T22:00:00Z,27.7650,-82.6490,1012.64,1111122 
COMPS,ioos:station:USF.COMPS:CAM:1,2008-11-07T23:00:00Z,27.7650,-82.6490,1013.38,1111122 
COMPS,ioos:station:USF.COMPS:CAM:1,2008-11-08T00:00:00Z,27.7650,-82.6490,1014.08,1111122 
COMPS,ioos:station:USF.COMPS:CAM:1,2008-11-08T01:00:00Z,27.7650,-82.6490,1014.33,1111122 
COMPS,ioos:station:USF.COMPS:CAM:1,2008-11-08T02:00:00Z,27.7650,-82.6490,1014.56,1111122 
COMPS,ioos:station:USF.COMPS:CAM:1,2008-11-08T03:00:00Z,27.7650,-82.6490,1014.61,1111122 
COMPS,ioos:station:USF.COMPS:CAM:1,2008-11-08T04:00:00Z,27.7650,-82.6490,1014.33,1111122 
COMPS,ioos:station:USF.COMPS:CAM:1,2008-11-08T05:00:00Z,27.7650,-82.6490,1013.97,1111122 
COMPS,ioos:station:USF.COMPS:CAM:1,2008-11-08T06:00:00Z,27.7650,-82.6490,1013.57,1111122 
COMPS,ioos:station:USF.COMPS:CAM:1,2008-11-08T07:00:00Z,27.7650,-82.6490,1013.06,1111122 
COMPS,ioos:station:USF.COMPS:CAM:1,2008-11-08T08:00:00Z,27.7650,-82.6490,1012.7,1111122 
COMPS,ioos:station:USF.COMPS:CAM:1,2008-11-08T09:00:00Z,27.7650,-82.6490,1012.86,1111122 
COMPS,ioos:station:USF.COMPS:CAM:1,2008-11-08T10:00:00Z,27.7650,-82.6490,1013.06,1111122 
COMPS,ioos:station:USF.COMPS:CAM:1,2008-11-08T11:00:00Z,27.7650,-82.6490,1013.08,1111122 
COMPS,ioos:station:USF.COMPS:CAM:1,2008-11-08T12:00:00Z,27.7650,-82.6490,1013.48,1111122 
COMPS,ioos:station:USF.COMPS:CAM:1,2008-11-08T13:00:00Z,27.7650,-82.6490,1013.88,1111122 
COMPS,ioos:station:USF.COMPS:CAM:1,2008-11-08T14:00:00Z,27.7650,-82.6490,1013.97,1111122 
COMPS,ioos:station:USF.COMPS:CAM:1,2008-11-08T15:00:00Z,27.7650,-82.6490,1014.4,1111122 
COMPS,ioos:station:USF.COMPS:CAM:1,2008-11-08T16:00:00Z,27.7650,-82.6490,1014.09,1111122 
COMPS,ioos:station:USF.COMPS:CAM:1,2008-11-08T17:00:00Z,27.7650,-82.6490,1013.34,1111122 
COMPS,ioos:station:USF.COMPS:CAM:1,2008-11-08T18:00:00Z,27.7650,-82.6490,1012.48,1111122 
COMPS,ioos:station:USF.COMPS:CAM:1,2008-11-08T19:00:00Z,27.7650,-82.6490,1011.68,1111122 
COMPS,ioos:station:USF.COMPS:CAM:1,2008-11-08T20:00:00Z,27.7650,-82.6490,1011.32,1111122 
COMPS,ioos:station:USF.COMPS:CAM:1,2008-11-08T21:00:00Z,27.7650,-82.6490,1011.14,1111122 
COMPS,ioos:station:USF.COMPS:CAM:1,2008-11-08T22:00:00Z,27.7650,-82.6490,1011.37,1111122 
COMPS,ioos:station:USF.COMPS:CAM:1,2008-11-08T23:00:00Z,27.7650,-82.6490,1011.9,1111122 
COMPS,ioos:station:USF.COMPS:CAM:1,2008-11-09T00:00:00Z,27.7650,-82.6490,1012.72,1111122 
COMPS,ioos:station:USF.COMPS:CAM:1,2008-11-09T01:00:00Z,27.7650,-82.6490,1013.05,1111122 
COMPS,ioos:station:USF.COMPS:CAM:1,2008-11-09T02:00:00Z,27.7650,-82.6490,1013.74,1111122 
COMPS,ioos:station:USF.COMPS:CAM:1,2008-11-09T03:00:00Z,27.7650,-82.6490,1014.02,1111122 
COMPS,ioos:station:USF.COMPS:CAM:1,2008-11-09T04:00:00Z,27.7650,-82.6490,1014.1,1111122 
COMPS,ioos:station:USF.COMPS:CAM:1,2008-11-09T05:00:00Z,27.7650,-82.6490,1013.82,1111122 
COMPS,ioos:station:USF.COMPS:CAM:1,2008-11-09T06:00:00Z,27.7650,-82.6490,1013.76,1111122 
COMPS,ioos:station:USF.COMPS:CAM:1,2008-11-09T07:00:00Z,27.7650,-82.6490,1013.64,1111122 
COMPS,ioos:station:USF.COMPS:CAM:1,2008-11-09T08:00:00Z,27.7650,-82.6490,1013.69,1111122 
COMPS,ioos:station:USF.COMPS:CAM:1,2008-11-09T09:00:00Z,27.7650,-82.6490,1013.82,1111122 
COMPS,ioos:station:USF.COMPS:CAM:1,2008-11-09T10:00:00Z,27.7650,-82.6490,1014.09,1111122 
COMPS,ioos:station:USF.COMPS:CAM:1,2008-11-09T11:00:00Z,27.7650,-82.6490,1014.48,1111122 
COMPS,ioos:station:USF.COMPS:CAM:1,2008-11-09T12:00:00Z,27.7650,-82.6490,1015.13,1111122 
COMPS,ioos:station:USF.COMPS:CAM:1,2008-11-09T13:00:00Z,27.7650,-82.6490,1015.78,1111122 
COMPS,ioos:station:USF.COMPS:CAM:1,2008-11-09T14:00:00Z,27.7650,-82.6490,1016.2,1111122 
COMPS,ioos:station:USF.COMPS:CAM:1,2008-11-09T15:00:00Z,27.7650,-82.6490,1016.4,1111122 
COMPS,ioos:station:USF.COMPS:CAM:1,2008-11-09T16:00:00Z,27.7650,-82.6490,1016.32,1111122 
COMPS,ioos:station:USF.COMPS:CAM:1,2008-11-09T17:00:00Z,27.7650,-82.6490,1015.72,1111122 
COMPS,ioos:station:USF.COMPS:CAM:1,2008-11-09T18:00:00Z,27.7650,-82.6490,1014.85,1111122 
COMPS,ioos:station:USF.COMPS:CAM:1,2008-11-09T19:00:00Z,27.7650,-82.6490,1014.34,1111122 
COMPS,ioos:station:USF.COMPS:CAM:1,2008-11-09T20:00:00Z,27.7650,-82.6490,1013.88,1111122 
COMPS,ioos:station:USF.COMPS:CAM:1,2008-11-09T21:00:00Z,27.7650,-82.6490,1014.04,1111122 
COMPS,ioos:station:USF.COMPS:CAM:1,2008-11-09T22:00:00Z,27.7650,-82.6490,1014.53,1111122 
COMPS,ioos:station:USF.COMPS:CAM:1,2008-11-09T23:00:00Z,27.7650,-82.6490,1015.01,1111122 
COMPS,ioos:station:USF.COMPS:CAM:1,2008-11-10T00:00:00Z,27.7650,-82.6490,1015.57,1111122 
COMPS,ioos:station:USF.COMPS:CAM:1,2008-11-10T01:00:00Z,27.7650,-82.6490,1015.84,1111122 
COMPS,ioos:station:USF.COMPS:CAM:1,2008-11-10T02:00:00Z,27.7650,-82.6490,1015.94,1111122 
COMPS,ioos:station:USF.COMPS:CAM:1,2008-11-10T03:00:00Z,27.7650,-82.6490,1016.74,1111122 
COMPS,ioos:station:USF.COMPS:CAM:1,2008-11-10T04:00:00Z,27.7650,-82.6490,1017.2,1111122 
COMPS,ioos:station:USF.COMPS:CAM:1,2008-11-10T05:00:00Z,27.7650,-82.6490,1017.06,1111122 
COMPS,ioos:station:USF.COMPS:CAM:1,2008-11-10T06:00:00Z,27.7650,-82.6490,1016.73,1111122 
COMPS,ioos:station:USF.COMPS:CAM:1,2008-11-10T07:00:00Z,27.7650,-82.6490,1016.34,1111122 
COMPS,ioos:station:USF.COMPS:CAM:1,2008-11-10T08:00:00Z,27.7650,-82.6490,1016.01,1111122 
COMPS,ioos:station:USF.COMPS:CAM:1,2008-11-10T09:00:00Z,27.7650,-82.6490,1015.97,1111122 
COMPS,ioos:station:USF.COMPS:CAM:1,2008-11-10T10:00:00Z,27.7650,-82.6490,1016.26,1111122 
COMPS,ioos:station:USF.COMPS:CAM:1,2008-11-10T11:00:00Z,27.7650,-82.6490,1017.16,1111122 
COMPS,ioos:station:USF.COMPS:CAM:1,2008-11-10T12:00:00Z,27.7650,-82.6490,1017.85,1111122 
COMPS,ioos:station:USF.COMPS:CAM:1,2008-11-10T13:00:00Z,27.7650,-82.6490,1018.38,1111122 
COMPS,ioos:station:USF.COMPS:CAM:1,2008-11-10T14:00:00Z,27.7650,-82.6490,1018.76,1111122 
COMPS,ioos:station:USF.COMPS:CAM:1,2008-11-10T15:00:00Z,27.7650,-82.6490,1018.84,1111122 
COMPS,ioos:station:USF.COMPS:CAM:1,2008-11-10T16:00:00Z,27.7650,-82.6490,1018.68,1111122 
COMPS,ioos:station:USF.COMPS:CAM:1,2008-11-10T17:00:00Z,27.7650,-82.6490,1017.37,1111122 
COMPS,ioos:station:USF.COMPS:CAM:1,2008-11-10T18:00:00Z,27.7650,-82.6490,1016.22,1111122 
COMPS,ioos:station:USF.COMPS:CAM:1,2008-11-10T19:00:00Z,27.7650,-82.6490,1015.41,1111122 
COMPS,ioos:station:USF.COMPS:CAM:1,2008-11-10T20:00:00Z,27.7650,-82.6490,1015.38,1111122 
COMPS,ioos:station:USF.COMPS:CAM:1,2008-11-10T21:00:00Z,27.7650,-82.6490,1015.3,1111122 
COMPS,ioos:station:USF.COMPS:CAM:1,2008-11-10T22:00:00Z,27.7650,-82.6490,1015.32,1111122 
COMPS,ioos:station:USF.COMPS:CAM:1,2008-11-10T23:00:00Z,27.7650,-82.6490,1015.76,1111122 
COMPS,ioos:station:USF.COMPS:CAM:1,2008-11-11T00:00:00Z,27.7650,-82.6490,1016.54,1111122 
COMPS,ioos:station:USF.COMPS:CAM:1,2008-11-11T01:00:00Z,27.7650,-82.6490,1017.12,1111122 
COMPS,ioos:station:USF.COMPS:CAM:1,2008-11-11T02:00:00Z,27.7650,-82.6490,1017.56,1111122 
COMPS,ioos:station:USF.COMPS:CAM:1,2008-11-11T03:00:00Z,27.7650,-82.6490,1018.25,1111122 
COMPS,ioos:station:USF.COMPS:CAM:1,2008-11-11T04:00:00Z,27.7650,-82.6490,1018.4,1111122 
COMPS,ioos:station:USF.COMPS:CAM:1,2008-11-11T05:00:00Z,27.7650,-82.6490,1018.4,1111122 
COMPS,ioos:station:USF.COMPS:CAM:1,2008-11-11T06:00:00Z,27.7650,-82.6490,1017.97,1111122 
COMPS,ioos:station:USF.COMPS:CAM:1,2008-11-11T07:00:00Z,27.7650,-82.6490,1017.81,1111122 
COMPS,ioos:station:USF.COMPS:CAM:1,2008-11-11T08:00:00Z,27.7650,-82.6490,1017.37,1111122 
COMPS,ioos:station:USF.COMPS:CAM:1,2008-11-11T09:00:00Z,27.7650,-82.6490,1017.6,1111122 
COMPS,ioos:station:USF.COMPS:CAM:1,2008-11-11T10:00:00Z,27.7650,-82.6490,1017.8,1111122 
COMPS,ioos:station:USF.COMPS:CAM:1,2008-11-11T11:00:00Z,27.7650,-82.6490,1018.0,1111122 
COMPS,ioos:station:USF.COMPS:CAM:1,2008-11-11T12:00:00Z,27.7650,-82.6490,1018.9,1111122 
COMPS,ioos:station:USF.COMPS:CAM:1,2008-11-11T13:00:00Z,27.7650,-82.6490,1019.34,1111122 
COMPS,ioos:station:USF.COMPS:CAM:1,2008-11-11T14:00:00Z,27.7650,-82.6490,1019.46,1111122 
COMPS,ioos:station:USF.COMPS:CAM:1,2008-11-11T15:00:00Z,27.7650,-82.6490,1019.77,1111122 
COMPS,ioos:station:USF.COMPS:CAM:1,2008-11-11T16:00:00Z,27.7650,-82.6490,1019.18,1111122 
COMPS,ioos:station:USF.COMPS:CAM:1,2008-11-11T17:00:00Z,27.7650,-82.6490,1017.97,1111122 
COMPS,ioos:station:USF.COMPS:CAM:1,2008-11-11T18:00:00Z,27.7650,-82.6490,1016.92,1111122 
COMPS,ioos:station:USF.COMPS:CAM:1,2008-11-11T19:00:00Z,27.7650,-82.6490,1015.96,1111122 
COMPS,ioos:station:USF.COMPS:CAM:1,2008-11-11T20:00:00Z,27.7650,-82.6490,1015.64,1111122 
COMPS,ioos:station:USF.COMPS:CAM:1,2008-11-11T21:00:00Z,27.7650,-82.6490,1015.64,1111122 
COMPS,ioos:station:USF.COMPS:CAM:1,2008-11-11T22:00:00Z,27.7650,-82.6490,1016.0,1111122 
COMPS,ioos:station:USF.COMPS:CAM:1,2008-11-11T23:00:00Z,27.7650,-82.6490,1016.16,1111122 
COMPS,ioos:station:USF.COMPS:CAM:1,2008-11-12T00:00:00Z,27.7650,-82.6490,1016.49,1111122 
COMPS,ioos:station:USF.COMPS:CAM:1,2008-11-12T01:00:00Z,27.7650,-82.6490,1016.97,1111122 
COMPS,ioos:station:USF.COMPS:CAM:1,2008-11-12T02:00:00Z,27.7650,-82.6490,1017.3,1111122 
COMPS,ioos:station:USF.COMPS:CAM:1,2008-11-12T03:00:00Z,27.7650,-82.6490,1017.46,1111122 